If you wish to contribute or participate in the discussions about articles you are invited to join SKYbrary as a registered user

 Actions

Dobbins Air Reserve Base Airport

From SKYbrary Wiki

KMGE
Airport
ICAO: KMGE – IATA: MGE
Summary
Name Dobbins Air Reserve Base Airport
Region
Territory "KM" is not in the list (AG, AN, AY, BG, BI, BK, C, CT, DA, DB, ...) of allowed values for the "ICAO Territory" property.
Location , Georgia
Serving Marietta
Elevation 325.526 m
1,068 ft
1,068 ft325.526 m
Type large airport
Coordinates 33° 54' 55.38" N, 84° 30' 58.75" W
Runways
Designator Length Width Surface ROPS
11/29 3048 m10,000 ft
91 m298.556 ft
CON yes/yes
110/290 1219 m3,999.344 ft
18 m59.055 ft
ASPH /


METAR
Observation KMGE 260056Z 11008KT 10SM BKN020CB BKN040 BKN120 BKN250 21/19 A3006 RMK AO2A CB 18N MOV N SLP173 P0001 T02090188 $
Station Marietta / Dobbins Air Force Base
Date/Time 26 May 2020 00:56:00
Wind direction 110°
Wind speed 08 kts
Lowest cloud amount broken clouds
Temperature 20.9°C
Dew point 18.8°C
Humidity 87%
QNH hPa
Weather condition n/a